#timestamp,LO_Frequency,Hit 
1505455215.3,286046986.0,N
1505455235.1,286046986.7,N
1505455236.0,286046986.7,N
1505455255.8,286046983.2,N
1505455275.7,286046982.4,N
1505455295.5,286046983.6,N
1505455315.3,286046981.0,N
1505455335.1,286046982.4,N
1505455355.9,286046986.8,N
1505455375.7,286046987.1,N
1505455395.5,286046988.8,N
1505455415.4,286046985.9,N
1505455435.2,286046982.2,N
1505455455.0,286046978.9,N
1505455455.9,286046978.9,N
1505455475.8,286046978.5,P
1505455495.6,286046988.0,N
1505455515.4,286046985.7,N
1505455535.3,286046985.9,P
1505455555.1,286046998.4,P
1505455575.9,286046999.0,N
1505455595.7,286046996.9,N
1505455615.5,286046997.8,N
1505455635.3,286046995.0,N
1505455655.2,286046997.4,N
1505455675.0,286046999.1,N
1505455675.9,286046999.1,N
1505455695.7,286046998.5,N
1505455715.6,286046997.2,N
1505455735.4,286046999.5,N
1505455755.2,286046997.1,N
1505455775.1,286047001.0,N
1505455776.0,286047001.0,N
1505455795.8,286047000.2,N
1505455815.6,286047000.4,N
1505455835.5,286046996.7,N
1505455855.3,286046997.4,N
1505455875.1,286047002.3,N
1505455895.9,286047001.6,N
1505455915.7,286047001.5,N
1505455935.5,286047000.1,N
1505455955.3,286047000.5,N
1505455975.2,286046998.4,N
1505455995.0,286046998.2,N
1505455995.9,286046998.2,N
1505456015.7,286047002.8,N
1505456035.6,286046998.3,N
1505456055.4,286046995.3,N
1505456075.2,286046996.2,N
1505456095.1,286046994.6,N
1505456096.0,286046994.6,N
1505456115.8,286046992.7,P
1505456135.6,286046993.9,N
1505456155.5,286046995.2,N
1505456175.3,286047004.2,N
1505456195.1,286047011.1,N
1505456215.9,286047016.7,N
1505456235.7,286047017.8,N
1505456255.5,286047019.4,N
1505456275.4,286047022.0,N
1505456295.2,286047019.4,N
1505456315.0,286047017.6,N
1505456315.9,286047017.6,N
1505456335.8,286047021.2,N
1505456355.6,286047024.3,N
1505456375.4,286047022.9,N
1505456395.3,286047019.1,N
1505456415.1,286047020.3,N
1505456416.0,286047020.3,N
1505456435.8,286047012.0,N
1505456455.6,286047008.3,N
1505456475.5,286047005.8,N
1505456495.3,286047003.0,N
1505456515.1,286047008.7,N
1505456535.9,286047005.8,N
1505456555.7,286047007.4,N
1505456575.5,286047006.1,N
1505456595.4,286047006.5,N
1505456615.2,286047007.4,N
1505456635.0,286047008.1,N
1505456635.9,286047008.1,N
1505456655.8,286047014.3,N
1505456675.6,286047012.5,N
1505456695.4,286047010.9,N
1505456715.2,286047009.1,N
1505456735.1,286047007.8,N
1505456736.0,286047007.8,N
1505456755.8,286047014.7,N
1505456775.6,286047015.9,N
1505456795.5,286047013.3,N
1505456815.3,286047012.5,N
1505456835.1,286047014.3,N
1505456855.9,286047016.7,N
1505456875.7,286047010.2,N
1505456895.5,286047004.5,N
1505456915.4,286047002.1,N
1505456935.2,286047003.5,N
1505456955.0,286047003.9,N
1505456955.9,286047003.9,N
1505456975.8,286047003.2,N
1505456995.6,286047003.6,N
1505457015.4,286047005.3,N
1505457035.3,286047010.0,N
1505457055.1,286047013.9,P
1505457056.0,286047013.9,P
1505457075.8,286047003.2,N
1505457095.7,286047006.5,N
1505457115.5,286047012.1,N
1505457135.3,286047008.6,N
1505457155.2,286047005.7,N
1505457175.9,286047004.6,N
1505457195.7,286047009.4,N
1505457215.6,286047013.8,P
1505457235.4,286047007.1,N
1505457255.2,286047011.0,P
1505457275.1,286047022.8,P
1505457276.0,286047022.8,P
1505457295.8,286047014.2,N
1505457315.6,286047021.6,P
1505457335.5,286047001.3,N
1505457355.3,286046996.0,N
1505457375.1,286046989.5,N
1505457395.9,286046988.2,N
1505457415.7,286046993.3,N
1505457435.5,286046995.9,N
1505457455.4,286046989.3,N
1505457475.2,286046984.0,N
1505457495.0,286046982.5,N
1505457495.9,286046982.5,N
1505457515.8,286046980.5,N
1505457535.6,286046983.5,N
1505457555.4,286046981.7,N
1505457575.2,286046977.3,N
1505457595.1,286046977.5,N
1505457596.0,286046977.5,N
1505457615.8,286046977.6,N
1505457635.6,286046978.0,N
1505457655.5,286046977.3,N
1505457675.3,286046982.9,N
1505457695.1,286046987.4,N
1505457715.9,286046986.5,N
1505457735.7,286046984.7,N
1505457755.5,286046978.9,N
1505457775.4,286046980.1,N
1505457795.2,286046979.8,N
1505457815.0,286046983.5,N
1505457815.9,286046983.5,N
1505457835.7,286046981.8,N
1505457855.6,286046978.9,N
1505457875.4,286046979.2,P
1505457895.3,286046995.7,N
1505457915.1,286046995.9,N
1505457916.0,286046995.9,N
1505457935.8,286046993.4,N
1505457955.7,286046996.8,N
1505457975.5,286046998.9,N
1505457995.3,286046999.4,N
1505458015.1,286047000.8,N
1505458035.9,286046997.2,N
1505458055.7,286046995.9,N
1505458075.5,286046994.0,N
1505458095.4,286046993.9,N
1505458115.2,286046995.8,N
1505458135.0,286047001.2,N
1505458135.9,286047001.2,N
1505458155.8,286047002.8,N
1505458175.6,286047001.8,N
1505458195.4,286046999.8,N
1505458215.3,286047009.0,N
1505458235.1,286047003.5,N
1505458236.0,286047003.5,N
1505458255.8,286047000.8,N
1505458275.7,286047003.4,N
1505458295.5,286047004.5,N
1505458315.3,286047001.8,N
1505458335.1,286047004.9,N
1505458355.9,286047007.6,N
1505458375.7,286047003.8,N
1505458395.5,286047001.0,N
1505458415.4,286046999.0,N
1505458435.2,286047001.7,N
1505458455.0,286047005.7,N
1505458455.9,286047005.7,N
1505458475.8,286047007.7,N
1505458495.6,286047010.1,N
1505458515.4,286047013.1,P
1505458535.3,286047004.0,N
1505458555.1,286047001.2,N
1505458575.8,286046999.5,N
1505458595.7,286046995.5,N
1505458615.5,286046994.5,N
1505458635.3,286046993.9,N
1505458655.2,286046994.0,N
1505458675.9,286046998.2,N
1505458695.7,286047003.2,N
1505458715.6,286047006.3,N
1505458735.4,286047002.5,N
1505458755.2,286047005.0,N
1505458775.0,286046998.3,N
1505458775.9,286046998.3,N
1505458795.8,286047000.2,N
